Voltar ao catálogo

FENGYUN 1C DEB

AtivoSSO
NORAD 31430·DEBRIS·🇨🇳 China

Lançado May 10, 1999 de Taiyuan Satellite Launch Center

Loading…

Próximas Passagens (próximas 24 horas)

TLE

AtualizadoSource: Space-Track

Época: Sep 14, 2026, 10:55 UTC

1 31430U 99025BTS 26257.45550976  .00001394  00000-0  59260-3 0  9991
2 31430  98.7214 324.5766 0025336 319.0228  53.3615 14.26704943   486

Acompanhe FENGYUN 1C DEB em tempo real com AllMySat

Download on the App Store